When you browse on this site, cookies collect data to enhance your experience and personalize the content and advertising you see.
Visit our Privacy Policy to learn more. By continuing to use the site, you agree to this use of cookies and data.
  • In France
  • List of Countries
  • For 7 days
  • Water Temperature
  • Weather Map
  • Weather Widgets
  • user-avatar
    Login

    Hourly Weather Lezhe

    Today, 23 February, Sunday

    Time Temperature Precipitation Wind Pressure Humidity
    00:00 +4°C° 0 mm 2 mps 747 mmHg 64%
    01:00 +4°C° 0 mm 2 mps 747 mmHg 64%
    02:00 +4°C° 0 mm 2 mps 746 mmHg 63%
    03:00 +4°C° 0 mm 2 mps 746 mmHg 62%
    04:00 +4°C° 0 mm 1 mps 745 mmHg 60%
    05:00 +5°C° 0 mm 1 mps 745 mmHg 59%
    06:00 +5°C° 0 mm 1 mps 745 mmHg 57%
    07:00 +5°C° 0 mm 1 mps 745 mmHg 55%
    08:00 +7°C° 0 mm 1 mps 745 mmHg 50%
    09:00 +9°C° 0 mm 1 mps 744 mmHg 45%
    10:00 +10°C° 0 mm 0 mps 744 mmHg 40%
    11:00 +12°C° 0 mm 1 mps 744 mmHg 40%
    12:00 +13°C° 0 mm 1 mps 744 mmHg 41%
    13:00 +14°C° 0 mm 1 mps 743 mmHg 41%
    14:00 +13°C° 0 mm 1 mps 743 mmHg 46%
    15:00 +12°C° 0 mm 1 mps 742 mmHg 51%
    16:00 +12°C° 0 mm 1 mps 742 mmHg 56%
    17:00 +11°C° 0 mm 1 mps 742 mmHg 60%
    18:00 +9°C° 0 mm 1 mps 742 mmHg 63%
    19:00 +7°C° 0 mm 0 mps 743 mmHg 67%
    20:00 +8°C° 0 mm 1 mps 742 mmHg 67%
    21:00 +8°C° 0 mm 1 mps 742 mmHg 67%
    22:00 +7°C° 0 mm 1 mps 742 mmHg 67%
    23:00 +7°C° 0 mm 1 mps 742 mmHg 66%

    Tomorrow, 24 February, Monday

    Time Temperature Precipitation Wind Pressure Humidity
    00:00 +7°C° 0 mm 1 mps 741 mmHg 66%
    01:00 +7°C° 0 mm 1 mps 741 mmHg 65%
    02:00 +7°C° 0 mm 1 mps 740 mmHg 65%
    03:00 +7°C° 0 mm 1 mps 740 mmHg 65%
    04:00 +6°C° 0 mm 1 mps 739 mmHg 65%
    05:00 +6°C° 0 mm 1 mps 740 mmHg 65%
    06:00 +7°C° 0 mm 1 mps 740 mmHg 66%
    07:00 +7°C° 0 mm 1 mps 740 mmHg 66%
    08:00 +9°C° 0 mm 1 mps 740 mmHg 63%
    09:00 +11°C° 0 mm 1 mps 740 mmHg 59%
    10:00 +13°C° 0 mm 1 mps 740 mmHg 56%
    11:00 +14°C° 0 mm 1 mps 740 mmHg 55%
    12:00 +14°C° 0 mm 1 mps 740 mmHg 53%
    13:00 +15°C° 0 mm 1 mps 740 mmHg 52%
    14:00 +15°C° 0 mm 1 mps 740 mmHg 54%
    15:00 +15°C° 0 mm 2 mps 740 mmHg 56%
    16:00 +15°C° 0 mm 2 mps 740 mmHg 58%
    17:00 +14°C° 0 mm 2 mps 740 mmHg 63%
    18:00 +12°C° 0 mm 2 mps 740 mmHg 68%
    19:00 +10°C° 0 mm 2 mps 741 mmHg 73%
    20:00 +10°C° 0 mm 2 mps 741 mmHg 72%
    21:00 +9°C° 0 mm 2 mps 740 mmHg 72%
    22:00 +9°C° 0 mm 2 mps 740 mmHg 71%
    23:00 +9°C° 0 mm 2 mps 740 mmHg 70%

    Day after tomorrow, 25 February, Tuesday

    Time Temperature Precipitation Wind Pressure Humidity
    00:00 +9°C° 0 mm 2 mps 740 mmHg 69%
    01:00 +9°C° 0 mm 2 mps 740 mmHg 68%
    02:00 +8°C° 0 mm 2 mps 739 mmHg 67%
    03:00 +9°C° 0 mm 1 mps 739 mmHg 66%
    04:00 +9°C° 0 mm 1 mps 738 mmHg 65%
    05:00 +9°C° 0 mm 1 mps 738 mmHg 64%
    06:00 +9°C° 0 mm 1 mps 738 mmHg 64%
    07:00 +9°C° 0 mm 1 mps 738 mmHg 63%
    08:00 +10°C° 0 mm 2 mps 737 mmHg 61%
    09:00 +13°C° 0 mm 2 mps 737 mmHg 59%
    10:00 +14°C° 0 mm 3 mps 737 mmHg 56%
    11:00 +14°C° 0 mm 3 mps 737 mmHg 59%
    12:00 +14°C° 0 mm 3 mps 736 mmHg 61%
    13:00 +16°C° 0 mm 3 mps 736 mmHg 64%
    14:00 +14°C° 0 mm 3 mps 735 mmHg 67%
    15:00 +14°C° 0 mm 3 mps 735 mmHg 71%
    16:00 +14°C° 0 mm 2 mps 734 mmHg 74%
    17:00 +13°C° 0.1 mm 2 mps 734 mmHg 79%
    18:00 +13°C° 0.1 mm 2 mps 734 mmHg 84%
    19:00 +12°C° 0.1 mm 2 mps 734 mmHg 89%
    20:00 +12°C° 0.2 mm 2 mps 734 mmHg 90%
    21:00 +10°C° 0.2 mm 3 mps 734 mmHg 91%
    22:00 +10°C° 0.2 mm 3 mps 734 mmHg 93%
    23:00 +10°C° 0.1 mm 3 mps 733 mmHg 92%

    26 February, Wednesday

    Time Temperature Precipitation Wind Pressure Humidity
    00:00 +10°C° 0.1 mm 2 mps 733 mmHg 92%
    01:00 +9°C° 0.1 mm 2 mps 733 mmHg 92%
    02:00 +9°C° 0 mm 2 mps 732 mmHg 91%
    03:00 +9°C° 0 mm 2 mps 731 mmHg 89%
    04:00 +9°C° 0 mm 3 mps 731 mmHg 88%
    05:00 +9°C° 0.1 mm 3 mps 730 mmHg 87%
    06:00 +9°C° 0.1 mm 3 mps 730 mmHg 85%
    07:00 +8°C° 0.1 mm 4 mps 730 mmHg 84%
    08:00 +9°C° 0.1 mm 5 mps 730 mmHg 81%
    09:00 +10°C° 0.1 mm 6 mps 729 mmHg 79%
    10:00 +11°C° 0.1 mm 7 mps 729 mmHg 76%
    11:00 +11°C° 0.7 mm 8 mps 728 mmHg 77%
    12:00 +11°C° 0.7 mm 9 mps 728 mmHg 77%
    13:00 +12°C° 0.7 mm 9 mps 727 mmHg 78%
    14:00 +11°C° 1.3 mm 9 mps 726 mmHg 78%
    15:00 +11°C° 1.3 mm 9 mps 726 mmHg 78%
    16:00 +11°C° 1.3 mm 8 mps 725 mmHg 77%
    17:00 +10°C° 1.3 mm 8 mps 725 mmHg 79%
    18:00 +10°C° 1.3 mm 8 mps 726 mmHg 81%
    19:00 +9°C° 1.3 mm 7 mps 726 mmHg 83%
    20:00 +9°C° 1 mm 7 mps 726 mmHg 82%
    21:00 +9°C° 1 mm 7 mps 726 mmHg 81%
    22:00 +8°C° 1 mm 7 mps 726 mmHg 79%
    23:00 +8°C° 0.9 mm 7 mps 726 mmHg 80%

    27 February, Thursday

    Time Temperature Precipitation Wind Pressure Humidity
    00:00 +8°C° 0.9 mm 7 mps 726 mmHg 80%
    01:00 +6°C° 0.9 mm 7 mps 725 mmHg 80%
    02:00 +5°C° 1.2 mm 6 mps 725 mmHg 82%
    03:00 +4°C° 1.2 mm 6 mps 725 mmHg 84%
    04:00 +4°C° 1.2 mm 6 mps 725 mmHg 85%
    05:00 +3°C° 0.9 mm 5 mps 725 mmHg 85%
    06:00 +4°C° 0.9 mm 4 mps 725 mmHg 85%
    07:00 +4°C° 0.9 mm 3 mps 726 mmHg 84%
    08:00 +4°C° 0.6 mm 3 mps 726 mmHg 79%
    09:00 +5°C° 0.6 mm 3 mps 727 mmHg 73%
    10:00 +7°C° 0.6 mm 3 mps 728 mmHg 68%
    11:00 +7°C° 0.5 mm 3 mps 728 mmHg 71%
    12:00 +5°C° 0.5 mm 3 mps 729 mmHg 74%
    13:00 +5°C° 0.5 mm 3 mps 729 mmHg 77%
    14:00 +5°C° 0.4 mm 3 mps 730 mmHg 77%
    15:00 +6°C° 0.4 mm 2 mps 731 mmHg 77%
    16:00 +6°C° 0.4 mm 2 mps 731 mmHg 76%
    17:00 +5°C° 0 mm 2 mps 732 mmHg 77%
    18:00 +5°C° 0 mm 2 mps 733 mmHg 78%
    19:00 +4°C° 0 mm 2 mps 734 mmHg 79%
    20:00 +4°C° 0 mm 2 mps 735 mmHg 78%
    21:00 +3°C° 0 mm 2 mps 736 mmHg 77%
    22:00 +3°C° 0 mm 2 mps 736 mmHg 76%
    23:00 +3°C° 0 mm 2 mps 736 mmHg 77%

    28 February, Friday

    Time Temperature Precipitation Wind Pressure Humidity
    00:00 +3°C° 0 mm 1 mps 736 mmHg 77%
    01:00 +3°C° 0 mm 1 mps 737 mmHg 78%
    02:00 +3°C° 0 mm 1 mps 737 mmHg 76%
    03:00 +3°C° 0 mm 1 mps 737 mmHg 74%
    04:00 +2°C° 0 mm 2 mps 737 mmHg 72%
    05:00 +2°C° 0 mm 2 mps 737 mmHg 71%
    06:00 +3°C° 0 mm 2 mps 737 mmHg 70%
    07:00 +3°C° 0 mm 2 mps 737 mmHg 70%
    08:00 +5°C° 0 mm 2 mps 738 mmHg 65%
    09:00 +6°C° 0 mm 2 mps 738 mmHg 61%
    10:00 +8°C° 0 mm 2 mps 738 mmHg 57%
    11:00 +9°C° 0 mm 2 mps 738 mmHg 57%
    12:00 +9°C° 0 mm 2 mps 737 mmHg 57%
    13:00 +10°C° 0 mm 3 mps 737 mmHg 58%
    14:00 +10°C° 0 mm 3 mps 737 mmHg 60%
    15:00 +9°C° 0 mm 3 mps 737 mmHg 63%
    16:00 +9°C° 0 mm 2 mps 737 mmHg 65%
    17:00 +8°C° 0 mm 2 mps 738 mmHg 69%
    18:00 +8°C° 0 mm 2 mps 738 mmHg 73%
    19:00 +7°C° 0 mm 2 mps 739 mmHg 77%
    20:00 +7°C° 0 mm 2 mps 739 mmHg 77%
    21:00 +7°C° 0 mm 2 mps 739 mmHg 78%
    22:00 +6°C° 0 mm 2 mps 739 mmHg 78%
    23:00 +6°C° 0 mm 2 mps 739 mmHg 77%
    Show more